Погода в Нарбонне

Франция     43°10′49″N   3°00′04″E
темп.,
°C
ветер,
м/с
пор.,
м/с
влажн.,
%
обл.,
%
осадки,
мм/ч
давл.,
гПа
погр.,
м
24 января, пн
пн2401:00+3св348010 0.0 102971
04:00+3св228216 0.0 102939
07:00+2св228147 0.0 103046
10:00+5св237187 0.0 1031125
13:00+9всв226612 0.0 1030520
16:00+10вюв226612 0.0 1029609
19:00+6юв00860 0.0 103010
22:00+5сз11890 0.0 103210
25 января, вт
вт2501:00+4ссв11880 0.0 103210
04:00+4ссв22889 0.0 103313
07:00+4ссв2282100 0.0 103350
10:00+6ссв117793 0.0 103454
13:00+10ююв11640 0.0 1033411
16:00+11ююв21630 0.0 1032488
19:00+7юз11810 0.0 103211
22:00+6з11830 0.0 103211
26 января, ср
ср2601:00+5з11830 0.0 103214
04:00+4з11770 0.0 103119
07:00+3з23720 0.0 103163
10:00+6з25630 0.0 1031167
13:00+13з35430 0.0 1030483
16:00+14з47420 0.0 1028297
19:00+8з47620 0.0 1029144
22:00+6з24660 0.0 1029112
27 января, чт
чт2701:00+5зсз12690 0.0 103054
04:00+4зсз12740 0.0 103048
07:00+3зсз11760 0.0 103029
10:00+5з12660 0.0 1031119
13:00+10з23511 0.0 1031451
16:00+13зюз13475 0.0 1029389
19:00+8з466682 0.0 1029160
22:00+6з587499 0.0 1030201
28 января, пт
пт2801:00+6з61271100 0.0 1030290
04:00+5з8157526 0.0 1030398
07:00+5з815684 0.0 1029428
10:00+6з814630 0.0 1031464
13:00+11зсз811440 0.0 1030819
16:00+11зсз81250100 0.0 10311140
19:00+9зсз8155891 0.0 1032742
22:00+7зсз610620 0.0 1033343